Weather in Ukhtokhma

Russia / Ivanovo Oblast     56°46′24″N   40°52′06″E
temp.,
°C
wind,
m/s
gust,
m/s
humid.,
%
clouds,
%
prec.,
mm/h
press.,
hPa
HPBL,
m
4 march, thu
thu400:00−1wsw41092100 0.1 1003754
03:00−2wsw51296100 0.7 1000754
06:00+1wsw71397100 1.9 996993
09:00+1w71490100 2.6 9941266
12:00−1wnw6117878 0.3 9961303
15:00−1nw598084 0.4 9971157
18:00−5nw368981 0.1 999147
21:00−8nw239247 0.1 100057
5 march, fri
fri500:00−10nw22940 0.0 100121
03:00−11wnw22940 0.0 100321
06:00−12wnw23950 0.0 100435
09:00−9w24933 0.0 1005198
12:00−5w358898 0.1 1006525
15:00−4wnw468099 0.4 1007977
18:00−7wnw379196 0.3 1009179
21:00−11nnw3108779 0.4 1012322
6 march, sat
sat600:00−15nw22910 0.0 101425
03:00−15w22920 0.0 101622
06:00−16wnw22930 0.0 101622
09:00−13w238822 0.0 1016187
12:00−9wnw2484100 0.1 1016706
15:00−8nw3478100 0.1 1015905
18:00−12w239196 0.1 101530
21:00−14sw239348 0.1 101544
7 march, sun
sun700:00−14ssw38910 0.0 1012158
03:00−13ssw412900 0.0 1009318
06:00−10ssw6139285 0.1 1005614
09:00−8ssw7149192 1.1 1000784
12:00−5ssw71492100 1.4 9961095
15:00−4ssw61293100 3.5 9931019
18:00−6wnw61388100 1.8 9931138
21:00−9w4127798 2.1 995372
8 march, mon
mon800:00−12sw4119333 0.1 995312
03:00−10ssw3128858 0.3 995361
06:00−8ssw41093100 0.1 993505
09:00−8ssw3793100 0.5 993489
12:00−6nw4792100 0.8 995637
15:00−6nw61090100 1.4 998819
18:00−10nw4118999 0.1 1002615
21:00−10wnw4119396 0.2 1006547